Weather Roundup
Issued by NWS Chicago, IL

Home | Current Version | Previous Version | Text Only | Print | Product List | Glossary Off
Versions: 1 2 3 4 5 6 7 8 9 10 11 12 13 14 15 16 17 18 19 20 21 22 23 24 25 26 27 28 29 30 31 32 33 34 35 36 37 38 39 40 41 42 43 44 45 46 47 48 49 50

000
NZUS59 KLOT 210306
HRRLOT

CHICAGO AREA WEATHER ROUNDUP
NATIONAL WEATHER SERVICE CHICAGO/ROMEOVILLE IL
900 PM CST THU NOV 20 2014

NOTE: "FAIR" INDICATES FEW OR NO CLOUDS BELOW 12,000 FEET WITH NO
SIGNIFICANT WEATHER AND/OR OBSTRUCTIONS TO VISIBILITY.

* THESE STATIONS ARE NOT UNDER NWS QUALITY CONTROL. THEY ALSO MAY NOT
  REPORT WEATHER SUCH AS PRECIPITATION OR FOG.

ILZ005-006-012>014-019>023-210400-
NORTHEAST ILLINOIS

CITY           SKY/WX    TMP DP  RH WIND       PRES   REMARKS
OHARE          CLEAR     18   4  54 W13       30.23R WCI   5
MIDWAY         CLEAR     21   4  47 W13       30.24R WCI   9
AURORA         CLEAR     12   3  67 NW6       30.26R WCI   3
LANSING*       CLEAR     21   4  48 NW13      30.23R WCI   8
JOLIET*        CLEAR     17   5  59 W6        30.27R WCI   9
WAUKEGAN       CLEAR     16   5  62 W7        30.22R WCI   6
DUPAGE AIRPORT CLEAR     16   3  56 W10       30.23R WCI   4
WHEELING       CLEAR     18   4  54 W9        30.25R WCI   7
KANKAKEE*      CLEAR     19   8  62 W7        30.27R WCI  10
MORRIS*        CLEAR     10   5  77 NW9       30.26R WCI  -2
LEWIS AIRPORT* CLEAR     15   6  67 NW9       30.25R WCI   3
NORTHERLY IS     N/A     22   5  48 W15         N/A  WCI   9
$$

WIZ051-052-058>065-066-070>072-210400-
SOUTHEAST WISCONSIN

CITY           SKY/WX    TMP DP  RH WIND       PRES   REMARKS
MILWAUKEE      CLEAR     17  -1  45 NW14      30.22R WCI   3
KENOSHA*       CLEAR     14   3  61 W8        30.22R WCI   3
RACINE*        CLEAR     16   0  49 NW10      30.23R WCI   4
BURLINGTON     CLEAR     13  -1  52 W7        30.22R WCI   3
WAUKESHA       CLEAR     14   0  52 NW10G16   30.22R WCI   1
WEST BEND      CLEAR     12   0  57 W8        30.20R WCI   1
$$

INZ001>003-010>013-019-020-210400-
NORTHWEST INDIANA

CITY           SKY/WX    TMP DP  RH WIND       PRES   REMARKS
GARY*          CLEAR     22   3  43 W14G20    30.24R WCI  10
MICHIGAN CITY* NOT AVBL
RENSSELAER*    NOT AVBL
VALPARAISO     CLEAR     20   5  52 W10       30.22R WCI   9
$$

LMZ740>746-210400-
SOUTHERN LAKE MICHIGAN

STATION/POSITION TIME  SKY/WX   TEMP WIND        PRES    VSBY
                                AIR  DIR/SP/G
                 (UTC)          (F)  (DEG/KT/KT) (MB)    (MI)
HARRISON CRIB    0300            21  300/ 21/ 26   N/A
BURNHAM HARBOR   0300            22  300/  7/ 16   N/A
CALUMET HARBOR   0300            21  280/ 10/ 15 1022.4R
BURNS HARBOR     NOT AVBL
MICHIGAN CITY    0300            24  270/ 25/ 28   N/A
$$

ABBREVIATIONS USED IN REMARKS
   TC - TEMPERATURE IN CELSIUS
  WCI - WIND CHILL INDEX
   HX - HEAT INDEX
  VSB - VISIBILITY
$$


USA.gov is the U.S. government's official web portal to all federal, state and local government web resources and services.